星链-36506(STARLINK-36506)

导读

STARLINK-36506是美国SpaceX星链计划的卫星,于2026年1月12日发射升空。星链项目旨在构建全球卫星互联网星座,为地面偏远地区提供高速宽带连接,该卫星加入后,进一步扩充了星链低轨卫星星座规模,持续推进全球覆盖的组网进程,助力卫星互联网服务能力升级。

基本信息
目录编号:
67414
目录名称:
STARLINK-36506
国际标识:
2026-005L
轨道中心:
EARTH
卫星名称:
星链-36506
卫星全名:
星链-36506(STARLINK-36506)
卫星状态:
在轨 (已飞行242 天)
发射日期:
2026-01-12 UTC
国别 :
美国 (US)
星等 :
--
该卫星已列入 空间交会检测服务 Space Conjunction Data Service (SCDS) ,当前飞行风险评估等级: 无高风险
轨道信息
数据来源 国际轨道数据
星历时间: 2026-09-11T10:13:36+0800
15小时前
查看轨道信息
半长轴: 6861.176km
偏心率: 0.0001003
轨道倾角: 43.000°
近地点辐角 266.543°
升交点赤经 270.732°
平近点角 93.531°
近地点: 482.35km
远地点: 483.728km
周期: 94.267分钟
每日圈数: 15.275836
详细信息
固有亮度:
5
最大亮度:
2.5
卫星平台:
Starlink V1.0
覆盖范围:
全球
运营商:
太空探索技术公司
运营商所在国:
美国
制造商(研发单位):
太空探索技术公司
制造商所在国:
美国
使用方式:
暂无
卫星简介
Starlink 计划是 SpaceX 推出的全球卫星互联网项目,通过发射低轨道卫星,为全球尤其是偏远地区提供高速、低延迟的互联网服务。自 2019 年起,Starlink 已部署数千颗卫星,旨在缩小全球数字鸿沟,推动互联网普及。该项目还为军事、航空等行业提供通信支持,带来广泛经济效益。
2D轨道图
3D轨道图
轨道高度分析图
轨道倾角分析图
轨道综合分析图
查看轨道综合分析图
交会数据列表
事件ID 空间交会对象 最接近时刻(TCA) 交会距离 交会风险概率(CRP) 交会风险指数(CRI) 操作
CDM_260914-032905-775306-741421
2026-09-14T
03:29:29+0000
0.429 km
远距离
1.562394E-4 高风险 0.79
CDM_260913-225105-654806-741421
2026-09-13T
22:51:28+0000
0.676 km
远距离
2.034071E-5 中风险 0.61
CDM_260914-011205-654806-741421
2026-09-14T
01:12:42+0000
1.159 km
极远距离
3.324772E-6 低风险 0.45
CDM_260914-050305-775306-741421
2026-09-14T
05:03:38+0000
1.549 km
极远距离
2.958644E-6 低风险 0.44
CDM_260914-002505-654806-741421
2026-09-14T
00:25:37+0000
1.332 km
极远距离
2.124084E-6 低风险 0.42
CDM_260914-015505-775306-741421
2026-09-14T
01:55:20+0000
2.240 km
极远距离
1.148541E-6 低风险 0.36
CDM_260913-211705-654806-741421
2026-09-13T
21:17:19+0000
2.640 km
极远距离
4.466312E-7 极低风险 0.28
与全量物体交会距离演化趋势
与全量物体交会风险概率演化趋势